Showing default

COSMOS 1565, 15004

Orbit data source: Space-Track

COSMOS 1565, 15004 is a payload satellite owned by GUKOS (CIS) in LEO that was launched on Mon, 28 May 1984 UTC via a KOSMOS 11K65M launch vehicle from the Plesetsk Missile And Space Complex (PKMTR). Payload-class satellites include a variety of spacecraft equipped with specific instruments for various scientific and technological missions. These include communications satellites like Starlink; space stations such as the ISS; scientific satellites like the Hubble; Earth observation satellites from companies like Planet Labs, Umbra, and HawkEye 360; GPS; miniature CubeSats for education and research; and military/defense satellites.

Loading next visibility...
Identifier
15004, 1984-052G
Orbit
LEO
Country
Flag of CISCIS
Related business
Manufacturer
NPO PM
Mission
Defense Communications
Bus & Motor
STRELA-1 11F625, Unknown motor
Mass
60 kg wet, 60 kg dry
Launch date (UTC)
1984-05-28 (41 years ago)
Launch vehicle
KOSMOS 11K65M
Launch site
Plesetsk Missile And Space Complex (PKMTR)
Object type
Payload
Rocket body
Debris
Shape & HBR
Sphere, 0.4 m
Radar Cross Section
0.588 m², Medium (>0.1 m² and < 1m²)

Expand to show TLE details & history
Last TLE update: 14 hours ago

TLE from 14 hours ago
0 COSMOS 1565
1 15004U 84052G   25258.36094609 -.00000018  00000-0 -10181-4 0  9994
2 15004  74.0100 114.9592 0044063 281.3369 257.3709 12.55457673892652
Epoch: 2025-09-15T08:39Z
TLE epoch observation values (Epoch: 2025-09-15T08:39:45.742Z)
Latitude
1.62309°
Longitude
169.98895°
Altitude
1,451.619 km
Speed
7.133 km/s
True Right ascension
19h 37m 59s
True Declination
1° 36' 51"
Sunlit
Object was in daylight at epoch
Visualization orbit readout
Latitude
Unknown
Longitude
Unknown
Altitude
Unknown
Speed
Unknown
Apparent Right ascension
Unknown
Apparent Declination
Unknown
Sunlit
N/A
Visualization observer readout
Local Sidereal Time
15:48:21
Azimuth
Unknown
Elevation
Unknown
Doppler factor
Unknown
Orbital elements
Apogee altitude
1,474.027 km
Perigee altitude
1,405.133 km
Semi-major axis
7,817.717 km
Eccentricity
0.00441
Inclination
74.01°
RAAN
114.9592°
Arg. of periapsis
281.3369°
True anomaly
256.87879°
Mean anomaly
257.3709°
Eccentric anomaly
257.12479°
Mean motion
3.13995 °/min
Orbital period
114.65 mins
BSTAR
-0.000010181
Loading maneuver chart data...
Computing Atmospheric mass density...
Loading historical data...
Loading historical data...
Loading historical data...
Loading historical data...
Loading historical data...
Loading historical data...
Loading historical data...

Documentation

Showing up to 5 results
|